Weather History for KJMR - January, 2014

Change the Weather History Date:

Monday, January 27, 2014

  Actual Average Record
Temperature  
Mean Temperature -12 °F -  
Max Temperature -5 °F 19 °F 44 °F (1989)
Min Temperature -18 °F -7 °F -33 °F (1935)
Degree Days  
Heating Degree Days 76    
Moisture  
Dew Point -24 °F    
Average Humidity 55    
Maximum Humidity 64    
Minimum Humidity 45    
Precipitation  
Precipitation 0.00 in - - ()
Sea Level Pressure  
Sea Level Pressure 30.27 in    
Wind  
Wind Speed 12 mph (WNW)    
Max Wind Speed 20 mph    
Max Gust Speed 29 mph    
Visibility 9 miles    
Events Snow    
Averages and records for this station are not official NWS values.
T = Trace of Precipitation, MM = Missing Value Source: NWS Daily Summary

Daily Weather History Graph

Daily Weather History Graph

Search for Another Location

Airport or City:

Trip Planner

Search our weather history database for the weather conditions in past years. The results will help you decide how hot, cold, wet, or windy it might be!

Date:

Astronomy

Jan. 27, 2014 Rise Set
Actual Time 7:40 AM CST 5:11 PM CST
Civil Twilight 7:08 AM CST 5:43 PM CST
Nautical Twilight 6:32 AM CST 6:20 PM CST
Astronomical Twilight 5:57 AM CST 6:55 PM CST
Moon 4:24 AM CST (1/27) 1:55 PM CST (1/27)
Length of Visible Light 10h 35m
Length of Day
9h 30m
Waning Crescent, 14% of the Moon is Illuminated
Jan 27
Waning Crescent
Jan 30
New
Feb 6
First Quarter
Feb 14
Full
Feb 22
Last Quarter

Hourly Weather History & Observations

Time (CST) Temp. Windchill Dew Point Humidity Pressure Visibility Wind Dir Wind Speed Gust Speed Precip Events Conditions
12:13 AM -9.4 °F -30.6 °F -22.0 °F 54% 30.05 in 7.0 mi NW 13.8 mph 28.8 mph N/A   Clear
12:33 AM -9.4 °F -32.8 °F -22.0 °F 54% 30.06 in 10.0 mi NW 17.3 mph 23.0 mph N/A   Clear
12:53 AM -9.4 °F -32.1 °F -22.0 °F 54% 30.06 in 7.0 mi NW 16.1 mph 26.5 mph N/A   Clear
1:12 AM -9.4 °F -34.1 °F -22.0 °F 54% 30.07 in 7.0 mi NW 19.6 mph 28.8 mph N/A   Clear
1:33 AM -13.0 °F -36.0 °F -22.0 °F 64% 30.09 in 10.0 mi NW 15.0 mph 25.3 mph N/A   Clear
1:52 AM -13.0 °F -36.0 °F -23.8 °F 59% 30.10 in 10.0 mi NW 15.0 mph 25.3 mph N/A   Clear
2:12 AM -13.0 °F -36.0 °F -23.8 °F 59% 30.11 in 10.0 mi NW 15.0 mph 20.7 mph N/A   Clear
2:33 AM -13.0 °F -38.8 °F -23.8 °F 59% 30.12 in 10.0 mi NW 19.6 mph 25.3 mph N/A   Clear
2:52 AM -13.0 °F -33.4 °F -23.8 °F 59% 30.14 in 7.0 mi NW 11.5 mph 23.0 mph N/A   Clear
3:13 AM -13.0 °F -35.2 °F -23.8 °F 59% 30.15 in 10.0 mi NW 13.8 mph 21.9 mph N/A   Mostly Cloudy
3:32 AM -13.0 °F -36.8 °F -23.8 °F 59% 30.16 in 5.0 mi NW 16.1 mph 25.3 mph N/A   Haze
3:53 AM -13.0 °F -36.0 °F -23.8 °F 59% 30.16 in 7.0 mi NW 15.0 mph 19.6 mph N/A   Mostly Cloudy
4:13 AM -13.0 °F -35.2 °F -23.8 °F 59% 30.17 in 10.0 mi NW 13.8 mph 19.6 mph N/A   Mostly Cloudy
4:33 AM -14.8 °F -39.8 °F -25.6 °F 58% 30.18 in 10.0 mi NW 17.3 mph 23.0 mph N/A   Scattered Clouds
4:52 AM -14.8 °F -35.6 °F -25.6 °F 58% 30.19 in 10.0 mi NW 11.5 mph 18.4 mph N/A   Clear
5:13 AM -14.8 °F -38.3 °F -25.6 °F 58% 30.19 in 10.0 mi NW 15.0 mph 25.3 mph N/A   Clear
5:33 AM -14.8 °F -40.5 °F -25.6 °F 58% 30.20 in 10.0 mi NW 18.4 mph 24.2 mph N/A   Clear
5:53 AM -14.8 °F -38.3 °F -25.6 °F 58% 30.21 in 10.0 mi NW 15.0 mph 23.0 mph N/A   Clear
6:13 AM -16.6 °F -41.4 °F -25.6 °F 64% 30.21 in 10.0 mi NW 16.1 mph 21.9 mph N/A   Clear
6:32 AM -16.6 °F -39.8 °F -25.6 °F 64% 30.22 in 10.0 mi NW 13.8 mph 24.2 mph N/A   Clear
6:52 AM -16.6 °F -38.9 °F -27.4 °F 58% 30.23 in 10.0 mi NW 12.7 mph 19.6 mph N/A   Clear
7:13 AM -16.6 °F -40.6 °F -27.4 °F 58% 30.24 in 10.0 mi NW 15.0 mph 21.9 mph N/A   Clear
7:33 AM -16.6 °F -40.6 °F -27.4 °F 58% 30.25 in 10.0 mi NW 15.0 mph 23.0 mph N/A   Clear
7:53 AM -18.4 °F -37.9 °F -27.4 °F 63% 30.26 in 10.0 mi WNW 9.2 mph - N/A   Clear
8:13 AM -16.6 °F -38.9 °F -27.4 °F 58% 30.27 in 10.0 mi NW 12.7 mph 19.6 mph N/A   Clear
8:33 AM -16.6 °F -42.1 °F -27.4 °F 58% 30.27 in 10.0 mi NW 17.3 mph 23.0 mph N/A   Clear
8:52 AM -14.8 °F -37.5 °F -25.6 °F 58% 30.28 in 10.0 mi NW 13.8 mph 20.7 mph N/A   Clear
9:12 AM -14.8 °F -37.5 °F -27.4 °F 53% 30.29 in 7.0 mi NW 13.8 mph 20.7 mph N/A   Clear
9:33 AM -13.0 °F -34.3 °F -25.6 °F 53% 30.31 in 7.0 mi NW 12.7 mph 16.1 mph N/A   Clear
9:53 AM -13.0 °F -33.4 °F -25.6 °F 53% 30.31 in 5.0 mi WNW 11.5 mph - N/A   Haze
10:13 AM -13.0 °F -33.4 °F -25.6 °F 53% 30.32 in 2.0 mi NW 11.5 mph 16.1 mph N/A Snow Light Snow
10:32 AM -11.2 °F -29.0 °F -25.6 °F 49% 30.33 in 7.0 mi NW 9.2 mph - N/A Snow Light Snow
10:52 AM -9.4 °F -29.8 °F -23.8 °F 49% 30.33 in 4.0 mi NW 12.7 mph - N/A   Haze
11:13 AM -9.4 °F -25.6 °F -23.8 °F 49% 30.34 in 4.0 mi NW 8.1 mph - N/A   Haze
11:32 AM -7.6 °F -24.6 °F -23.8 °F 45% 30.33 in 5.0 mi West 9.2 mph - N/A   Haze
11:53 AM -7.6 °F -23.4 °F -23.8 °F 45% 30.33 in 10.0 mi West 8.1 mph - N/A   Clear
12:13 PM -7.6 °F -25.7 °F -23.8 °F 45% 30.33 in 10.0 mi West 10.4 mph - N/A   Clear
12:32 PM -7.6 °F -25.7 °F -23.8 °F 45% 30.34 in 10.0 mi West 10.4 mph - N/A   Clear
12:53 PM -5.8 °F -22.4 °F -22.0 °F 46% 30.33 in 7.0 mi West 9.2 mph - N/A   Clear
1:12 PM -5.8 °F -24.4 °F -22.0 °F 46% 30.33 in 10.0 mi West 11.5 mph - N/A   Clear
1:33 PM -5.8 °F -24.4 °F -22.0 °F 46% 30.33 in 10.0 mi WNW 11.5 mph - N/A   Clear
1:53 PM -5.8 °F -21.2 °F -22.0 °F 46% 30.33 in 10.0 mi WNW 8.1 mph - N/A   Clear
2:12 PM -5.8 °F -24.4 °F -22.0 °F 46% 30.33 in 10.0 mi West 11.5 mph - N/A   Clear
2:32 PM -5.8 °F -22.4 °F -22.0 °F 46% 30.33 in 10.0 mi West 9.2 mph - N/A   Clear
2:53 PM -5.8 °F -22.4 °F -22.0 °F 46% 30.33 in 10.0 mi West 9.2 mph - N/A   Clear
3:13 PM -5.8 °F -21.2 °F -22.0 °F 46% 30.32 in 10.0 mi WNW 8.1 mph - N/A   Clear
3:32 PM -5.8 °F -22.4 °F -22.0 °F 46% 30.32 in 10.0 mi West 9.2 mph - N/A   Clear
3:53 PM -5.8 °F -21.2 °F -22.0 °F 46% 30.33 in 10.0 mi West 8.1 mph - N/A   Clear
4:12 PM -5.8 °F -24.4 °F -22.0 °F 46% 30.33 in 10.0 mi West 11.5 mph - N/A   Clear
4:33 PM -7.6 °F -25.7 °F -22.0 °F 50% 30.33 in 10.0 mi West 10.4 mph - N/A   Clear
4:53 PM -7.6 °F -22.1 °F -22.0 °F 50% 30.34 in 10.0 mi West 6.9 mph - N/A   Clear
5:13 PM -9.4 °F -22.7 °F -22.0 °F 54% 30.34 in 10.0 mi West 5.8 mph - N/A   Clear
5:32 PM -9.4 °F -24.3 °F -23.8 °F 49% 30.34 in 10.0 mi West 6.9 mph - N/A   Clear
5:52 PM -9.4 °F -22.7 °F -22.0 °F 54% 30.34 in 10.0 mi West 5.8 mph - N/A   Clear
6:13 PM -9.4 °F -18.6 °F -22.0 °F 54% 30.34 in 10.0 mi West 3.5 mph - N/A   Clear
6:33 PM -13.0 °F -27.0 °F -23.8 °F 59% 30.34 in 10.0 mi West 5.8 mph - N/A   Clear
6:53 PM -13.0 °F -22.7 °F -23.8 °F 59% 30.35 in 10.0 mi West 3.5 mph - N/A   Clear
7:12 PM -13.0 °F -30.0 °F -23.8 °F 59% 30.35 in 10.0 mi West 8.1 mph - N/A   Clear
7:33 PM -13.0 °F -31.3 °F -22.0 °F 64% 30.34 in 10.0 mi West 9.2 mph - N/A   Scattered Clouds
7:53 PM -11.2 °F -30.1 °F -22.0 °F 59% 30.34 in 10.0 mi West 10.4 mph - N/A   Scattered Clouds
8:12 PM -13.0 °F -31.3 °F -22.0 °F 64% 30.34 in 10.0 mi WNW 9.2 mph 16.1 mph N/A   Clear
8:33 PM -13.0 °F -30.0 °F -23.8 °F 59% 30.34 in 10.0 mi WNW 8.1 mph - N/A   Clear
8:52 PM -13.0 °F -28.6 °F -23.8 °F 59% 30.34 in 10.0 mi WNW 6.9 mph - N/A   Clear
9:13 PM -13.0 °F -30.0 °F -23.8 °F 59% 30.34 in 10.0 mi WNW 8.1 mph - N/A   Clear
9:33 PM -13.0 °F -25.1 °F -23.8 °F 59% 30.34 in 10.0 mi WNW 4.6 mph - N/A   Clear
9:53 PM -13.0 °F -25.1 °F -22.0 °F 64% 30.33 in 10.0 mi West 4.6 mph - N/A   Clear
10:12 PM -13.0 °F -22.7 °F -22.0 °F 64% 30.33 in 10.0 mi West 3.5 mph - N/A   Clear
10:33 PM -14.8 °F - -25.6 °F 58% 30.33 in 10.0 mi Calm Calm - N/A   Clear
10:53 PM -14.8 °F - -23.8 °F 64% 30.33 in 10.0 mi Calm Calm - N/A   Clear
11:12 PM -14.8 °F - -23.8 °F 64% 30.32 in 10.0 mi Calm Calm - N/A   Clear
11:33 PM -16.6 °F - -25.6 °F 64% 30.32 in 10.0 mi Calm Calm - N/A   Clear
11:52 PM -18.4 °F -28.9 °F -27.4 °F 63% 30.32 in 10.0 mi WSW 3.5 mph - N/A   Clear